Cloud_Cover
12 28 27 36 30 78 77 73 5 5 2 4 10 7 44 100 100 94 21 35 31 31 60 9 0 0 2 4 4 1 0 0 0 0 0 0 2 0 2 82 72 5 5 26 16 29 34 32 5
3 14 11 2 92 68 6 83 5 69 58 13 3 5 28 86 11 4 39 30 22 28 34 32 0 1 6 0 4 3 1 1 0 0 0 0 5 0 94 32 32 5 8 6 13 6 10 14 45
15 1 0 0 81 14 16 63 5 4 89 53 4 5 2 43 8 24 26 10 12 5 20 7 5 5 2 5 4 0 0 5 0 3 2 8 0 5 5 6 9 5 6 11 6 98 17 9 65
0 0 0 23 92 18 89 21 5 88 44 2 2 3 4 18 23 46 5 0 0 0 11 2 4 5 5 5 1 3 17 0 11 2 0 4 100 98 3 5 4 5 5 25 66 44 49 27 91
5 4 64 58 1 7 3 55 9 30 0 0 2 25 28 70 98 42 0 0 0 2 5 5 5 5 5 5 9 0 5 0 2 4 5 43 95 5 4 3 11 3 8 42 5 40 85 16 5
4 4 100 39 36 0 31 1 53 0 1 1 19 5 59 100 66 12 0 0 0 0 5 5 5 5 5 5 10 5 5 5 5 5 5 9 2 9 5 4 5 3 0 7 8 100 26 91 52
4 6 7 11 16 25 1 11 1 90 1 0 60 1 57 86 74 24 0 0 0 0 4 5 5 5 28 11 6 9 21 5 29 6 8 5 5 6 5 2 2 2 1 5 3 37 82 100 100
5 6 43 5 42 6 4 5 5 13 0 0 0 9 1 42 44 25 0 0 0 0 0 5 3 4 5 5 12 7 5 11 5 51 89 5 6 99 6 10 49 3 1 3 0 61 99 100 74
5 73 87 4 50 48 4 4 100 5 0 0 0 1 0 0 4 4 0 0 0 0 0 0 0 5 6 5 5 5 5 57 67 23 35 30 100 39 100 13 7 22 5 5 6 49 98 100 100
5 80 5 5 5 52 10 3 38 37 99 4 2 0 0 0 0 0 0 0 0 0 0 0 3 5 20 5 9 11 24 61 90 100 91 100 96 8 42 90 56 100 99 5 5 14 10 73 94
5 0 5 5 5 2 10 4 26 6 91 23 5 0 0 0 0 0 0 0 0 0 0 3 5 5 5 5 5 5 5 5 72 78 98 63 48 91 79 58 100 98 99 85 14 29 18 50 100
5 0 5 5 5 39 46 0 0 38 3 5 31 0 0 0 0 0 0 0 0 0 0 5 5 5 5 5 8 94 99 62 5 6 22 100 100 66 15 5 12 22 8 14 22 98 96 40 26
5 0 2 5 2 0 4 56 94 85 6 32 76 0 0 0 0 0 0 0 2 0 1 0 1 4 4 5 7 9 14 10 16 8 9 47 17 9 22 5 5 7 10 29 28 89 100 89 16
1 0 0 4 0 0 0 16 46 15 0 40 23 2 0 0 0 0 0 0 4 0 0 4 1 5 5 5 26 68 19 14 82 80 100 96 35 15 26 71 80 79 91 60 79 60 21 10 70
5 0 0 0 0 0 0 0 7 1 95 12 82 22 0 0 0 0 0 0 0 4 4 0 5 5 2 5 5 5 5 9 58 72 99 90 97 28 98 98 37 94 100 40 60 63 36 8 37
0 1 0 0 0 0 0 10 0 4 6 97 14 92 2 0 0 0 0 0 0 0 4 1 0 6 10 11 42 29 9 6 17 35 99 61 50 100 100 98 88 82 99 63 70 25 86 50 11
5 14 0 0 0 0 0 0 5 13 25 91 4 98 97 26 6 0 0 0 0 0 0 0 12 100 100 99 65 100 94 71 70 88 100 100 99 100 100 100 100 99 44 91 68 57 23 100 11
4 5 5 5 2 5 2 0 0 0 42 17 93 83 35 97 55 94 97 36 0 0 0 0 0 47 71 60 37 39 89 100 100 100 100 100 100 100 100 84 97 70 17 8 62 33 66 98 88
5 4 14 6 5 11 3 4 5 40 1 5 84 100 11 8 16 5 75 100 100 20 1 0 0 0 5 100 70 35 95 20 64 100 74 67 85 58 70 100 84 88 85 68 18 95 100 100 100
5 9 47 8 5 5 59 6 60 19 5 5 6 28 12 5 5 5 5 18 74 95 100 0 0 0 52 100 100 100 100 100 100 100 49 73 88 100 100 100 100 100 90 100 100 99 80 95 98
96 87 92 12 2 5 13 63 100 77 40 5 5 5 0 0 5 12 5 4 5 87 100 100 5 16 100 100 90 73 100 100 100 100 100 100 72 94 97 100 100 100 100 59 99 100 82 54 98
97 5 8 5 5 90 20 74 10 100 100 66 32 5 5 5 1 6 5 5 5 55 56 5 24 93 100 100 100 100 100 99 100 100 100 100 100 100 100 100 100 69 80 54 60 36 28 82 78
76 5 5 5 5 41 53 97 7 5 18 90 100 6 5 5 0 0 5 5 5 5 10 5 58 100 96 100 62 88 95 100 78 45 100 100 100 100 100 100 100 100 100 100 100 96 87 44 35
1 0 5 5 5 92 33 93 100 97 35 6 2 0 2 4 1 5 35 22 5 5 7 5 100 100 100 100 35 26 75 81 78 54 100 100 87 100 100 100 98 85 100 100 100 100 100 100 100
0 41 97 100 99 99 11 3 67 2 17 5 5 2 0 0 0 30 100 100 15 10 5 5 100 100 100 98 95 99 100 84 49 100 100 100 100 95 100 100 100 100 100 100 100 84 71 89 100
0 4 94 65 100 100 4 5 100 0 0 0 0 0 1 0 0 3 87 86 5 8 5 5 89 100 56 100 88 94 100 4 5 7 22 71 94 100 100 100 100 100 100 100 100 100 100 100 53
2 0 6 98 20 4 85 5 2 1 0 0 0 0 2 0 0 5 44 17 21 6 6 25 14 5 1 9 19 77 100 8 38 52 98 96 32 6 91 100 100 100 100 100 100 100 100 100 71
0 4 29 29 74 98 100 2 5 3 2 1 0 0 0 0 0 1 4 5 5 1 85 1 4 1 5 4 0 0 10 81 84 34 94 100 98 98 96 84 100 99 96 100 98 100 100 100 100
0 0 0 24 16 23 60 100 22 2 5 5 0 3 1 0 0 0 0 0 0 0 5 39 5 5 5 4 6 35 69 78 20 5 40 88 99 86 100 72 31 21 44 99 99 50 57 97 100
4 0 2 7 70 5 0 2 5 5 5 2 0 2 2 0 5 0 0 0 0 0 0 0 44 100 56 66 68 100 48 19 11 28 27 88 34 36 100 79 71 80 100 100 100 77 81 58 65